Weather History for KSSF - December, 2013

Change the Weather History Date:

Wednesday, December 25, 2013

  Actual Average (WUND) Record (WUND)
Temperature  
Mean Temperature 50 °F -  
Max Temperature 61 °F - - (-1)
Min Temperature 39 °F - - (-1)
Degree Days  
Heating Degree Days 15    
Moisture  
Dew Point 44 °F    
Average Humidity 75    
Maximum Humidity 89    
Minimum Humidity 60    
Precipitation  
Precipitation 0.00 in - - ()
Sea Level Pressure  
Sea Level Pressure 30.29 in    
Wind  
Wind Speed 3 mph (NE)    
Max Wind Speed 13 mph    
Max Gust Speed -    
Visibility 9 miles    
Events Rain    
Averages and records for this station are not official NWS values.
T = Trace of Precipitation, MM = Missing Value Source: NWS Daily Summary

Daily Weather History Graph

Daily Weather History Graph

Search for Another Location

Airport or City:

Trip Planner

Search our weather history database for the weather conditions in past years. The results will help you decide how hot, cold, wet, or windy it might be!

Date:

Astronomy

Dec. 25, 2013 Rise Set
Actual Time 7:26 AM CST 5:42 PM CST
Civil Twilight 6:59 AM CST 6:08 PM CST
Nautical Twilight 6:30 AM CST 6:38 PM CST
Astronomical Twilight 6:01 AM CST 7:07 PM CST
Moon 12:20 AM CST (12/25) 12:24 PM CST (12/25)
Length of Visible Light 11h 08m
Length of Day
10h 16m
Waning Gibbous, 48% of the Moon is Illuminated
Dec 25
Waning Gibbous
Jan 1
New
Jan 7
First Quarter
Jan 15
Full
Jan 23
Last Quarter

Hourly Weather History & Observations

Time (CST) Temp. Dew Point Humidity Pressure Visibility Wind Dir Wind Speed Gust Speed Precip Events Conditions
12:53 AM 44.1 °F 37.9 °F 79% 30.26 in 10.0 mi Calm Calm - N/A   Clear
1:53 AM 39.9 °F 37.0 °F 89% 30.25 in 10.0 mi Calm Calm - N/A   Clear
2:53 AM 39.9 °F 36.0 °F 86% 30.25 in 8.0 mi Calm Calm - N/A   Clear
3:53 AM 39.9 °F 37.0 °F 89% 30.24 in 7.0 mi Calm Calm - N/A   Clear
4:53 AM 41.0 °F 37.0 °F 86% 30.23 in 7.0 mi Calm Calm - N/A   Scattered Clouds
5:53 AM 41.0 °F 37.9 °F 89% 30.23 in 5.0 mi Calm Calm - N/A   Scattered Clouds
6:53 AM 43.0 °F 39.9 °F 89% 30.25 in 5.0 mi Calm Calm - N/A   Scattered Clouds
7:53 AM 42.1 °F 39.0 °F 89% 30.27 in 5.0 mi Calm Calm - N/A   Scattered Clouds
8:53 AM 48.0 °F 43.0 °F 83% 30.28 in 8.0 mi NNE 5.8 mph - N/A   Mostly Cloudy
9:53 AM 53.1 °F 43.0 °F 69% 30.31 in 10.0 mi NE 5.8 mph - N/A   Mostly Cloudy
10:53 AM 55.0 °F 44.1 °F 67% 30.32 in 10.0 mi NE 6.9 mph - N/A   Overcast
11:53 AM 57.0 °F 45.0 °F 64% 30.32 in 10.0 mi North 5.8 mph - N/A   Overcast
12:53 PM 59.0 °F 46.0 °F 62% 30.29 in 10.0 mi Variable 4.6 mph - N/A   Overcast
1:53 PM 61.0 °F 46.9 °F 60% 30.26 in 10.0 mi NNE 5.8 mph - N/A   Overcast
2:53 PM 60.1 °F 46.9 °F 62% 30.25 in 10.0 mi ENE 5.8 mph - N/A   Overcast
3:53 PM 59.0 °F 46.9 °F 64% 30.25 in 10.0 mi ENE 6.9 mph - N/A   Overcast
4:53 PM 57.9 °F 46.0 °F 65% 30.28 in 10.0 mi NE 6.9 mph - N/A   Overcast
5:53 PM 55.9 °F 46.9 °F 72% 30.29 in 8.0 mi ENE 5.8 mph - N/A Rain Light Rain
6:23 PM 55.4 °F 48.2 °F 77% 30.28 in 10.0 mi NE 4.6 mph - N/A   Overcast
6:53 PM 55.0 °F 46.9 °F 74% 30.30 in 10.0 mi East 8.1 mph - N/A   Overcast
7:53 PM 55.0 °F 46.9 °F 74% 30.32 in 10.0 mi NE 4.6 mph - N/A   Overcast
8:19 PM 55.4 °F 46.4 °F 72% 30.32 in 10.0 mi ENE 8.1 mph - N/A   Overcast
8:53 PM 55.0 °F 46.9 °F 74% 30.34 in 10.0 mi NNE 5.8 mph - N/A   Overcast
9:10 PM 55.4 °F 46.4 °F 72% 30.34 in 10.0 mi NNE 4.6 mph - N/A   Overcast
9:41 PM 55.4 °F 46.4 °F 72% 30.35 in 10.0 mi NNE 5.8 mph - N/A   Overcast
9:53 PM 55.0 °F 46.9 °F 74% 30.35 in 10.0 mi NE 5.8 mph - N/A   Overcast
10:16 PM 55.4 °F 46.4 °F 72% 30.35 in 10.0 mi East 3.5 mph - N/A   Overcast
10:53 PM 55.0 °F 46.9 °F 74% 30.36 in - North - - N/A   Unknown
11:53 PM 55.0 °F 43.0 °F 64% 30.36 in 10.0 mi North 12.7 mph - N/A   Unknown